Location: Home
(42.5358°N, 72.7383°W)
Time: 13:36:22
(UTC-05:00)

Courier 1B - Visible Passes

Search period start: 30 November 2021 00:00
Search period end: 10 December 2021 00:00
Orbit: 962 x 1209 km, 28.3° (Epoch: 29 November)

Date Brightness Start Highest point End Pass type
(mag) Time Alt. Az. Time Alt. Az. Time Alt. Az.
30 Nov 9.5 17:33:41 10° SSW 17:38:24 19° SSE 17:42:58 10° SE visible
30 Nov 9.2 19:26:08 10° SW 19:30:30 23° SSW 19:30:30 23° SSW visible
01 Dec 9.1 18:32:27 10° SW 18:37:57 24° S 18:40:08 21° SSE visible
01 Dec 10.0 20:26:03 10° WSW 20:27:02 13° SW 20:27:02 13° SW visible
02 Dec 9.3 17:38:51 10° SW 17:44:21 23° S 17:49:38 10° ESE visible
02 Dec 9.2 19:32:08 10° WSW 19:36:41 23° SSW 19:36:41 23° SSW visible
03 Dec 9.6 16:45:21 10° SW 16:50:44 22° SSE 16:55:55 10° ESE visible
03 Dec 9.1 18:38:16 10° SW 18:43:56 25° S 18:46:21 21° SSE visible
03 Dec 10.1 20:32:39 10° WSW 20:33:15 12° SW 20:33:15 12° SW visible
04 Dec 9.3 17:44:29 10° SW 17:50:20 26° S 17:55:55 10° SE visible
04 Dec 9.4 19:38:27 10° WSW 19:42:57 20° SSW 19:42:57 20° SSW visible
05 Dec 9.5 16:50:46 10° SW 16:56:42 25° S 17:02:22 10° ESE visible
05 Dec 9.3 18:44:23 10° WSW 18:49:54 23° S 18:52:42 18° SSE visible
06 Dec 9.4 17:50:25 10° WSW 17:56:17 25° S 18:01:54 10° SE visible
06 Dec 9.7 19:45:15 10° SW 19:49:20 16° SSW 19:49:25 16° SSW visible
07 Dec 9.5 16:56:32 10° SW 17:02:38 27° S 17:08:29 10° SE visible
07 Dec 9.6 18:50:51 10° WSW 18:55:47 19° SSW 18:59:18 14° SSE visible
08 Dec 9.6 17:56:39 10° WSW 18:02:12 22° SSW 18:07:32 10° SE visible
08 Dec 10.0 19:53:40 10° SW 19:55:07 11° SSW 19:56:11 10° SSW visible
09 Dec 9.7 17:02:36 10° WSW 17:08:34 25° S 17:14:19 10° SE visible
09 Dec 9.9 18:57:57 10° SW 19:01:37 14° SSW 19:05:10 10° S visible
